Terminal Aerodrome Forecast
Issued by NWS

Home | Current Version | Previous Version | Graphics & Text | Print | Product List | Glossary On
Versions: 1 2 3 4 5 6 7 8 9 10 11 12 13 14 15 16 17
000
FTUS43 KMPX 181700 RRA
TAFRWF
TAF
KRWF 181740Z 1818/1918 27010KT 6SM -SN SCT027 OVC035
     FM182100 21010KT P6SM BKN040
      TEMPO 1903/1906 4SM -SN OVC018
     FM190700 28012G20KT P6SM OVC025
     FM191300 30017G30KT 6SM -SN BLSN BKN025 OVC040=

USA.gov is the U.S. government's official web portal to all federal, state and local government web resources and services.